TimeCDT,TemperatureF,Dew PointF,Humidity,Sea Level PressureIn,VisibilityMPH,Wind Direction,Wind SpeedMPH,Gust SpeedMPH,PrecipitationIn,Events,Conditions,WindDirDegrees,DateUTC
12:53 AM,62.1,57.0,84,29.91,10.0,South,5.8,-,N/A,,Clear,190,2012-09-17 05:53:00
1:53 AM,59.0,55.9,90,29.91,8.0,South,3.5,-,N/A,,Clear,180,2012-09-17 06:53:00
2:53 AM,59.0,55.9,90,29.89,8.0,SSE,4.6,-,N/A,,Clear,150,2012-09-17 07:53:00
3:53 AM,57.9,55.0,90,29.88,6.0,South,3.5,-,N/A,,Clear,180,2012-09-17 08:53:00
4:53 AM,57.9,55.0,90,29.88,7.0,SE,4.6,-,N/A,,Clear,140,2012-09-17 09:53:00
5:53 AM,57.9,55.0,90,29.88,7.0,ESE,3.5,-,N/A,,Clear,120,2012-09-17 10:53:00
6:53 AM,55.9,53.1,90,29.88,7.0,SSE,3.5,-,N/A,,Clear,150,2012-09-17 11:53:00
7:53 AM,55.9,53.1,90,29.89,5.0,Calm,Calm,-,N/A,,Clear,0,2012-09-17 12:53:00
8:53 AM,61.0,57.0,87,29.89,6.0,WSW,5.8,-,N/A,,Clear,250,2012-09-17 13:53:00
9:34 AM,64.4,57.2,77,29.92,10.0,West,11.5,-,N/A,,Mostly Cloudy,280,2012-09-17 14:34:00
9:53 AM,64.0,57.9,80,29.90,10.0,West,8.1,-,N/A,,Overcast,280,2012-09-17 14:53:00
10:53 AM,64.9,57.9,78,29.93,9.0,NW,13.8,-,N/A,,Overcast,320,2012-09-17 15:53:00
11:53 AM,68.0,57.9,70,29.94,10.0,North,12.7,-,N/A,,Overcast,350,2012-09-17 16:53:00
11:55 AM,69.8,57.2,64,29.96,10.0,NNW,12.7,-,N/A,,Overcast,340,2012-09-17 16:55:00
12:53 PM,71.1,57.0,61,29.94,10.0,North,16.1,24.2,N/A,,Mostly Cloudy,360,2012-09-17 17:53:00
1:53 PM,66.0,55.9,70,29.95,10.0,North,21.9,-,N/A,,Mostly Cloudy,350,2012-09-17 18:53:00
2:53 PM,64.9,55.0,70,29.94,10.0,NNE,16.1,23.0,N/A,,Overcast,20,2012-09-17 19:53:00
3:53 PM,64.0,55.0,73,29.96,10.0,North,19.6,-,N/A,,Overcast,360,2012-09-17 20:53:00
4:53 PM,63.0,52.0,67,29.96,10.0,North,23.0,-,N/A,,Overcast,360,2012-09-17 21:53:00
5:53 PM,63.0,51.1,65,30.00,10.0,NNE,13.8,23.0,N/A,,Overcast,20,2012-09-17 22:53:00
6:53 PM,64.0,51.1,63,30.00,10.0,NNE,13.8,-,N/A,,Scattered Clouds,30,2012-09-17 23:53:00
7:53 PM,64.0,51.1,63,30.01,10.0,NNE,9.2,-,N/A,,Clear,20,2012-09-18 00:53:00
8:53 PM,61.0,50.0,67,30.04,10.0,North,8.1,-,N/A,,Clear,360,2012-09-18 01:53:00
9:53 PM,60.1,48.0,64,30.07,10.0,NNE,5.8,-,N/A,,Clear,20,2012-09-18 02:53:00
10:53 PM,57.9,46.9,67,30.08,10.0,NNE,3.5,-,N/A,,Clear,20,2012-09-18 03:53:00
11:53 PM,53.1,46.0,77,30.09,10.0,NW,4.6,-,N/A,,Clear,320,2012-09-18 04:53:00